Time,TemperatureF,DewpointF,PressureIn,WindDirection,WindDirectionDegrees,WindSpeedMPH,WindSpeedGustMPH,Humidity,HourlyPrecipIn,Conditions,Clouds,dailyrainin,SoftwareType,DateUTC
2013-03-19 00:00:00,28.4,23.9,30.24,NNE,29,0.0,0.0,83,0.00,,,0.00,WeatherCatV1.11B39,2013-03-19 04:00:00,
2013-03-19 00:05:00,28.4,24.2,30.23,NNE,29,0.0,0.0,84,0.00,,,0.00,WeatherCatV1.11B39,2013-03-19 04:05:00,
2013-03-19 00:06:00,28.3,24.1,30.24,NNE,29,0.0,0.0,84,0.00,,,0.00,WeatherCatV1.11B39,2013-03-19 04:06:00,
2013-03-19 00:11:00,28.3,24.1,30.23,NNE,27,0.0,0.0,84,0.00,,,0.00,WeatherCatV1.11B39,2013-03-19 04:11:00,
2013-03-19 00:16:00,28.3,24.1,30.23,NNE,27,0.0,0.0,84,0.00,,,0.00,WeatherCatV1.11B39,2013-03-19 04:16:00,
2013-03-19 00:21:00,28.1,24.2,30.22,ENE,59,0.0,0.0,85,0.00,,,0.00,WeatherCatV1.11B39,2013-03-19 04:21:00,
2013-03-19 00:26:00,28.1,24.2,30.21,ENE,58,0.0,0.0,85,0.00,,,0.00,WeatherCatV1.11B39,2013-03-19 04:26:00,
2013-03-19 00:31:00,28.2,24.6,30.21,NE,54,0.0,0.0,86,0.00,,,0.00,WeatherCatV1.11B39,2013-03-19 04:31:00,
2013-03-19 00:36:00,28.1,24.5,30.20,NE,50,0.0,0.0,86,0.00,,,0.00,WeatherCatV1.11B39,2013-03-19 04:36:00,
2013-03-19 00:41:00,28.1,24.5,30.20,NE,47,0.0,0.0,86,0.00,,,0.00,WeatherCatV1.11B39,2013-03-19 04:41:00,
2013-03-19 00:46:00,28.1,24.5,30.20,NNE,29,0.0,0.0,86,0.00,,,0.00,WeatherCatV1.11B39,2013-03-19 04:46:00,
2013-03-19 00:51:00,28.1,24.5,30.20,NW,320,0.0,1.0,86,0.00,,,0.00,WeatherCatV1.11B39,2013-03-19 04:51:00,
2013-03-19 00:56:00,28.2,24.6,30.19,NW,313,0.0,0.0,86,0.00,,,0.00,WeatherCatV1.11B39,2013-03-19 04:56:00,
2013-03-19 01:01:00,28.1,24.7,30.19,NNE,16,0.0,1.0,87,0.00,,,0.00,WeatherCatV1.11B39,2013-03-19 05:01:00,
2013-03-19 01:06:00,28.1,24.5,30.18,NW,318,0.0,0.0,86,0.00,,,0.00,WeatherCatV1.11B39,2013-03-19 05:06:00,
2013-03-19 01:11:00,28.1,24.7,30.19,North,1,0.0,0.0,87,0.00,,,0.00,WeatherCatV1.11B39,2013-03-19 05:11:00,
2013-03-19 01:16:00,28.0,24.6,30.18,North,5,0.0,0.0,87,0.00,,,0.00,WeatherCatV1.11B39,2013-03-19 05:16:00,
2013-03-19 01:21:00,28.0,24.6,30.18,NNE,30,0.0,0.0,87,0.00,,,0.00,WeatherCatV1.11B39,2013-03-19 05:21:00,
2013-03-19 01:26:00,28.0,24.6,30.17,North,9,0.0,0.0,87,0.00,,,0.00,WeatherCatV1.11B39,2013-03-19 05:26:00,
2013-03-19 01:31:00,28.0,24.6,30.17,NNE,29,0.0,0.0,87,0.00,,,0.00,WeatherCatV1.11B39,2013-03-19 05:31:00,
2013-03-19 01:36:00,28.0,24.9,30.16,NE,39,0.0,0.0,88,0.00,,,0.00,WeatherCatV1.11B39,2013-03-19 05:36:00,
2013-03-19 01:41:00,28.0,24.9,30.16,NNE,32,0.0,0.0,88,0.00,,,0.00,WeatherCatV1.11B39,2013-03-19 05:41:00,
2013-03-19 01:46:00,28.0,24.9,30.16,NE,34,0.0,0.0,88,0.00,,,0.00,WeatherCatV1.11B39,2013-03-19 05:46:00,
2013-03-19 01:51:00,28.0,24.9,30.15,NE,43,0.0,2.0,88,0.00,,,0.00,WeatherCatV1.11B39,2013-03-19 05:51:00,
2013-03-19 01:56:00,28.0,24.9,30.15,NE,41,0.0,0.0,88,0.00,,,0.00,WeatherCatV1.11B39,2013-03-19 05:56:00,
2013-03-19 02:01:00,28.0,24.9,30.15,NE,45,0.0,0.0,88,0.00,,,0.00,WeatherCatV1.11B39,2013-03-19 06:01:00,
2013-03-19 02:06:00,28.0,24.9,30.14,NE,56,0.0,0.0,88,0.00,,,0.00,WeatherCatV1.11B39,2013-03-19 06:06:00,
2013-03-19 02:11:00,28.0,24.9,30.14,NE,56,0.0,0.0,88,0.00,,,0.00,WeatherCatV1.11B39,2013-03-19 06:11:00,
2013-03-19 02:16:00,28.1,25.0,30.13,NE,55,0.0,0.0,88,0.00,,,0.00,WeatherCatV1.11B39,2013-03-19 06:16:00,
2013-03-19 02:21:00,28.1,25.0,30.14,NE,55,0.0,0.0,88,0.00,,,0.00,WeatherCatV1.11B39,2013-03-19 06:21:00,
2013-03-19 02:26:00,28.1,25.0,30.13,NE,55,0.0,0.0,88,0.00,,,0.00,WeatherCatV1.11B39,2013-03-19 06:26:00,
2013-03-19 02:31:00,28.1,25.0,30.13,NE,55,0.0,0.0,88,0.00,,,0.00,WeatherCatV1.11B39,2013-03-19 06:31:00,
2013-03-19 02:36:00,28.1,25.0,30.12,NE,55,0.0,0.0,88,0.00,,,0.00,WeatherCatV1.11B39,2013-03-19 06:36:00,
2013-03-19 02:41:00,28.1,25.3,30.12,NE,56,0.0,0.0,89,0.00,,,0.00,WeatherCatV1.11B39,2013-03-19 06:41:00,
2013-03-19 02:46:00,28.1,25.0,30.11,NE,55,0.0,0.0,88,0.00,,,0.00,WeatherCatV1.11B39,2013-03-19 06:46:00,
2013-03-19 02:51:00,28.3,25.5,30.11,NE,55,0.0,0.0,89,0.00,,,0.00,WeatherCatV1.11B39,2013-03-19 06:51:00,
2013-03-19 02:56:00,28.3,25.5,30.11,NE,54,0.0,0.0,89,0.00,,,0.00,WeatherCatV1.11B39,2013-03-19 06:56:00,
2013-03-19 03:01:00,28.3,25.5,30.11,NE,54,0.0,0.0,89,0.00,,,0.00,WeatherCatV1.11B39,2013-03-19 07:01:00,
2013-03-19 03:06:00,28.3,25.5,30.10,NE,54,0.0,0.0,89,0.00,,,0.00,WeatherCatV1.11B39,2013-03-19 07:06:00,
2013-03-19 03:11:00,28.3,25.5,30.11,NE,54,0.0,0.0,89,0.00,,,0.00,WeatherCatV1.11B39,2013-03-19 07:11:00,
2013-03-19 03:16:00,28.4,25.8,30.11,NE,53,0.0,0.0,90,0.00,,,0.00,WeatherCatV1.11B39,2013-03-19 07:16:00,
2013-03-19 03:21:00,28.4,25.8,30.10,NE,53,0.0,0.0,90,0.00,,,0.00,WeatherCatV1.11B39,2013-03-19 07:21:00,
2013-03-19 03:26:00,28.5,25.7,30.11,NE,53,0.0,0.0,89,0.00,,,0.00,WeatherCatV1.11B39,2013-03-19 07:26:00,
2013-03-19 03:31:00,28.4,25.6,30.10,NE,54,0.0,0.0,89,0.00,,,0.00,WeatherCatV1.11B39,2013-03-19 07:31:00,
2013-03-19 03:36:00,28.4,25.8,30.10,NE,54,0.0,0.0,90,0.00,,,0.00,WeatherCatV1.11B39,2013-03-19 07:36:00,
2013-03-19 03:41:00,28.5,25.9,30.09,ENE,57,0.0,0.0,90,0.00,,,0.00,WeatherCatV1.11B39,2013-03-19 07:41:00,
2013-03-19 03:46:00,28.6,26.0,30.10,ENE,58,0.0,0.0,90,0.00,,,0.00,WeatherCatV1.11B39,2013-03-19 07:46:00,
2013-03-19 03:51:00,28.6,26.0,30.10,ENE,59,0.0,0.0,90,0.00,,,0.00,WeatherCatV1.11B39,2013-03-19 07:51:00,
2013-03-19 03:56:00,28.6,26.0,30.09,ENE,59,0.0,3.0,90,0.00,,,0.00,WeatherCatV1.11B39,2013-03-19 07:56:00,
2013-03-19 04:01:00,28.6,26.0,30.09,ENE,64,0.0,5.0,90,0.00,,,0.00,WeatherCatV1.11B39,2013-03-19 08:01:00,
2013-03-19 04:06:00,28.7,26.4,30.09,ENE,59,0.0,0.0,91,0.00,,,0.00,WeatherCatV1.11B39,2013-03-19 08:06:00,
2013-03-19 04:11:00,28.7,26.1,30.08,ENE,61,0.0,0.0,90,0.00,,,0.00,WeatherCatV1.11B39,2013-03-19 08:11:00,
2013-03-19 04:16:00,28.7,26.4,30.08,ENE,64,0.0,5.0,91,0.00,,,0.00,WeatherCatV1.11B39,2013-03-19 08:16:00,
2013-03-19 04:21:00,28.7,26.1,30.08,ENE,61,0.0,4.0,90,0.00,,,0.00,WeatherCatV1.11B39,2013-03-19 08:21:00,
2013-03-19 04:26:00,28.9,26.6,30.08,ENE,57,0.0,0.0,91,0.00,,,0.00,WeatherCatV1.11B39,2013-03-19 08:26:00,
2013-03-19 04:31:00,28.9,26.6,30.07,ENE,60,2.0,4.0,91,0.00,,,0.00,WeatherCatV1.11B39,2013-03-19 08:31:00,
2013-03-19 04:36:00,28.9,26.6,30.07,ENE,59,0.0,0.0,91,0.00,,,0.00,WeatherCatV1.11B39,2013-03-19 08:36:00,
2013-03-19 04:41:00,28.9,26.6,30.06,ENE,59,0.0,0.0,91,0.00,,,0.00,WeatherCatV1.11B39,2013-03-19 08:41:00,
2013-03-19 04:46:00,28.9,26.3,30.06,ENE,60,0.0,0.0,90,0.00,,,0.00,WeatherCatV1.11B39,2013-03-19 08:46:00,
2013-03-19 04:51:00,28.9,26.3,30.06,ENE,61,0.0,0.0,90,0.00,,,0.00,WeatherCatV1.11B39,2013-03-19 08:51:00,
2013-03-19 04:56:00,28.9,26.3,30.06,ENE,60,0.0,0.0,90,0.00,,,0.00,WeatherCatV1.11B39,2013-03-19 08:56:00,
2013-03-19 05:01:00,29.0,26.7,30.06,ENE,60,0.0,0.0,91,0.00,,,0.00,WeatherCatV1.11B39,2013-03-19 09:01:00,
2013-03-19 05:06:00,29.0,27.0,30.07,ENE,60,0.0,0.0,92,0.00,,,0.00,WeatherCatV1.11B39,2013-03-19 09:06:00,
2013-03-19 05:11:00,29.0,26.7,30.07,ENE,61,0.0,0.0,91,0.00,,,0.00,WeatherCatV1.11B39,2013-03-19 09:11:00,
2013-03-19 05:16:00,29.0,26.7,30.06,ENE,60,0.0,0.0,91,0.00,,,0.00,WeatherCatV1.11B39,2013-03-19 09:16:00,
2013-03-19 05:21:00,29.2,26.9,30.06,ENE,61,0.0,0.0,91,0.00,,,0.00,WeatherCatV1.11B39,2013-03-19 09:21:00,
2013-03-19 05:26:00,29.2,26.9,30.05,ENE,61,0.0,0.0,91,0.00,,,0.00,WeatherCatV1.11B39,2013-03-19 09:26:00,
2013-03-19 05:31:00,29.2,26.9,30.06,ENE,60,0.0,0.0,91,0.00,,,0.00,WeatherCatV1.11B39,2013-03-19 09:31:00,
2013-03-19 05:36:00,29.2,26.9,30.06,ENE,60,0.0,0.0,91,0.00,,,0.00,WeatherCatV1.11B39,2013-03-19 09:36:00,
2013-03-19 05:41:00,29.2,26.9,30.06,ENE,61,0.0,0.0,91,0.00,,,0.00,WeatherCatV1.11B39,2013-03-19 09:41:00,
2013-03-19 05:46:00,29.2,27.2,30.06,ENE,62,0.0,0.0,92,0.00,,,0.00,WeatherCatV1.11B39,2013-03-19 09:46:00,
2013-03-19 05:51:00,29.2,27.2,30.05,ENE,62,0.0,0.0,92,0.00,,,0.00,WeatherCatV1.11B39,2013-03-19 09:51:00,
2013-03-19 05:56:00,29.2,26.9,30.05,ENE,61,0.0,0.0,91,0.00,,,0.00,WeatherCatV1.11B39,2013-03-19 09:56:00,
2013-03-19 06:01:00,29.1,26.8,30.05,ENE,63,2.0,4.0,91,0.00,,,0.00,WeatherCatV1.11B39,2013-03-19 10:01:00,
2013-03-19 06:06:00,29.2,26.9,30.04,ENE,62,2.0,4.0,91,0.00,,,0.00,WeatherCatV1.11B39,2013-03-19 10:06:00,
2013-03-19 06:11:00,29.2,26.9,30.04,ENE,63,0.0,2.0,91,0.00,,,0.00,WeatherCatV1.11B39,2013-03-19 10:11:00,
2013-03-19 06:16:00,29.2,26.9,30.04,ENE,61,0.0,0.0,91,0.00,,,0.00,WeatherCatV1.11B39,2013-03-19 10:16:00,
2013-03-19 06:21:00,29.3,27.0,30.04,ENE,63,0.0,0.0,91,0.00,,,0.00,WeatherCatV1.11B39,2013-03-19 10:21:00,
2013-03-19 06:26:00,29.5,27.2,30.03,ENE,60,0.0,0.0,91,0.00,,,0.00,WeatherCatV1.11B39,2013-03-19 10:26:00,
2013-03-19 06:31:00,29.6,27.3,30.04,ENE,62,0.0,5.0,91,0.00,,,0.00,WeatherCatV1.11B39,2013-03-19 10:31:00,
2013-03-19 06:36:00,29.8,27.5,30.03,ENE,61,0.0,7.0,91,0.00,,,0.00,WeatherCatV1.11B39,2013-03-19 10:36:00,
2013-03-19 06:41:00,29.9,27.6,30.03,ENE,61,0.0,0.0,91,0.00,,,0.00,WeatherCatV1.11B39,2013-03-19 10:41:00,
2013-03-19 06:46:00,30.1,28.1,30.02,ENE,59,0.0,3.0,92,0.00,,,0.00,WeatherCatV1.11B39,2013-03-19 10:46:00,
2013-03-19 06:51:00,30.2,28.2,30.02,NNE,27,2.0,2.0,92,0.00,,,0.00,WeatherCatV1.11B39,2013-03-19 10:51:00,
2013-03-19 06:56:00,30.4,28.1,30.02,NE,55,0.0,5.0,91,0.00,,,0.00,WeatherCatV1.11B39,2013-03-19 10:56:00,
2013-03-19 07:01:00,30.5,28.5,30.01,NE,50,0.0,0.0,92,0.00,,,0.00,WeatherCatV1.11B39,2013-03-19 11:01:00,
2013-03-19 07:06:00,30.7,28.7,30.01,NE,53,0.0,3.0,92,0.00,,,0.00,WeatherCatV1.11B39,2013-03-19 11:06:00,
2013-03-19 07:11:00,30.8,28.8,30.01,ENE,57,0.0,5.0,92,0.00,,,0.00,WeatherCatV1.11B39,2013-03-19 11:11:00,
2013-03-19 07:16:00,30.8,28.8,30.01,NE,39,2.0,3.0,92,0.00,,,0.00,WeatherCatV1.11B39,2013-03-19 11:16:00,
2013-03-19 07:21:00,30.9,28.9,30.01,NNE,19,0.0,3.0,92,0.00,,,0.00,WeatherCatV1.11B39,2013-03-19 11:21:00,
2013-03-19 07:26:00,30.9,28.6,30.00,NNE,26,0.0,2.0,91,0.00,,,0.00,WeatherCatV1.11B39,2013-03-19 11:26:00,
2013-03-19 07:31:00,31.0,29.0,30.01,NNE,27,0.0,3.0,92,0.00,,,0.00,WeatherCatV1.11B39,2013-03-19 11:31:00,
2013-03-19 07:36:00,31.1,29.1,30.00,ENE,61,0.0,4.0,92,0.00,,,0.00,WeatherCatV1.11B39,2013-03-19 11:36:00,
2013-03-19 07:41:00,31.1,29.1,30.00,NE,55,0.0,3.0,92,0.00,,,0.00,WeatherCatV1.11B39,2013-03-19 11:41:00,
2013-03-19 07:46:00,31.1,29.1,30.00,ENE,62,0.0,0.0,92,0.00,,,0.00,WeatherCatV1.11B39,2013-03-19 11:46:00,
2013-03-19 07:51:00,31.3,29.3,30.00,NNE,27,0.0,0.0,92,0.00,,,0.00,WeatherCatV1.11B39,2013-03-19 11:51:00,
2013-03-19 07:56:00,31.2,29.2,30.00,NE,55,0.0,0.0,92,0.00,,,0.00,WeatherCatV1.11B39,2013-03-19 11:56:00,
2013-03-19 08:01:00,31.2,29.2,29.99,NE,55,0.0,0.0,92,0.00,,,0.00,WeatherCatV1.11B39,2013-03-19 12:01:00,
2013-03-19 08:06:00,31.2,29.2,29.99,NE,56,0.0,0.0,92,0.00,,,0.00,WeatherCatV1.11B39,2013-03-19 12:06:00,
2013-03-19 08:11:00,31.2,29.2,29.98,NE,38,4.0,4.0,92,0.00,,,0.00,WeatherCatV1.11B39,2013-03-19 12:11:00,
2013-03-19 08:16:00,31.3,29.0,29.99,NE,56,2.0,5.0,91,0.00,,,0.00,WeatherCatV1.11B39,2013-03-19 12:16:00,
2013-03-19 08:21:00,31.2,29.2,29.98,ENE,57,0.0,0.0,92,0.00,,,0.00,WeatherCatV1.11B39,2013-03-19 12:21:00,
2013-03-19 08:26:00,31.2,29.2,29.98,ENE,58,2.0,4.0,92,0.00,,,0.00,WeatherCatV1.11B39,2013-03-19 12:26:00,
2013-03-19 08:31:00,31.2,29.2,29.98,ENE,61,0.0,0.0,92,0.00,,,0.00,WeatherCatV1.11B39,2013-03-19 12:31:00,
2013-03-19 08:36:00,31.4,29.6,29.97,ENE,58,0.0,4.0,93,0.00,,,0.00,WeatherCatV1.11B39,2013-03-19 12:36:00,
2013-03-19 08:41:00,31.4,29.4,29.97,ENE,62,0.0,0.0,92,0.00,,,0.00,WeatherCatV1.11B39,2013-03-19 12:41:00,
2013-03-19 08:46:00,31.4,29.4,29.96,ENE,58,0.0,3.0,92,0.00,,,0.00,WeatherCatV1.11B39,2013-03-19 12:46:00,
2013-03-19 08:51:00,31.5,29.4,29.96,ENE,58,2.0,6.0,92,0.00,,,0.00,WeatherCatV1.11B39,2013-03-19 12:51:00,
2013-03-19 08:56:00,31.6,29.5,29.96,North,6,0.0,3.0,92,0.00,,,0.00,WeatherCatV1.11B39,2013-03-19 12:56:00,
2013-03-19 09:01:00,31.7,29.6,29.96,NNE,30,0.0,0.0,92,0.00,,,0.00,WeatherCatV1.11B39,2013-03-19 13:01:00,
2013-03-19 09:06:00,31.7,29.6,29.96,ENE,60,0.0,5.0,92,0.00,,,0.00,WeatherCatV1.11B39,2013-03-19 13:06:00,
2013-03-19 09:11:00,31.8,29.7,29.96,ENE,60,0.0,0.0,92,0.00,,,0.00,WeatherCatV1.11B39,2013-03-19 13:11:00,
2013-03-19 09:16:00,32.0,29.9,29.95,ENE,63,2.0,5.0,92,0.00,,,0.00,WeatherCatV1.11B39,2013-03-19 13:16:00,
2013-03-19 09:21:00,32.0,29.9,29.94,ENE,63,0.0,5.0,92,0.00,,,0.00,WeatherCatV1.11B39,2013-03-19 13:21:00,
2013-03-19 09:26:00,32.1,30.3,29.94,ENE,59,0.0,3.0,93,0.00,,,0.00,WeatherCatV1.11B39,2013-03-19 13:26:00,
2013-03-19 09:31:00,32.3,30.2,29.94,NE,56,2.0,5.0,92,0.00,,,0.00,WeatherCatV1.11B39,2013-03-19 13:31:00,
2013-03-19 09:36:00,32.2,30.4,29.94,ENE,58,3.0,7.0,93,0.00,,,0.00,WeatherCatV1.11B39,2013-03-19 13:36:00,
2013-03-19 09:41:00,32.4,30.3,29.94,ENE,60,0.0,0.0,92,0.00,,,0.00,WeatherCatV1.11B39,2013-03-19 13:41:00,
2013-03-19 09:46:00,32.4,30.3,29.94,ENE,64,0.0,5.0,92,0.00,,,0.00,WeatherCatV1.11B39,2013-03-19 13:46:00,
2013-03-19 09:51:00,32.4,30.6,29.94,NE,56,0.0,0.0,93,0.00,,,0.00,WeatherCatV1.11B39,2013-03-19 13:51:00,
2013-03-19 09:56:00,32.6,30.5,29.93,ENE,58,0.0,0.0,92,0.00,,,0.00,WeatherCatV1.11B39,2013-03-19 13:56:00,
2013-03-19 10:01:00,32.5,30.7,29.93,NE,51,0.0,0.0,93,0.00,,,0.00,WeatherCatV1.11B39,2013-03-19 14:01:00,
2013-03-19 10:06:00,32.7,30.9,29.93,NE,56,0.0,6.0,93,0.00,,,0.00,WeatherCatV1.11B39,2013-03-19 14:06:00,
2013-03-19 10:11:00,32.7,30.9,29.93,NE,49,1.0,1.0,93,0.00,,,0.00,WeatherCatV1.11B39,2013-03-19 14:11:00,
2013-03-19 10:16:00,32.9,31.1,29.92,ENE,57,0.0,7.0,93,0.00,,,0.00,WeatherCatV1.11B39,2013-03-19 14:16:00,
2013-03-19 10:21:00,33.1,31.3,29.92,ENE,57,0.0,0.0,93,0.00,,,0.00,WeatherCatV1.11B39,2013-03-19 14:21:00,
2013-03-19 10:26:00,33.1,31.6,29.91,ENE,62,0.0,7.0,94,0.00,,,0.00,WeatherCatV1.11B39,2013-03-19 14:26:00,
2013-03-19 10:31:00,33.1,31.6,29.90,ENE,58,5.0,9.0,94,0.00,,,0.00,WeatherCatV1.11B39,2013-03-19 14:31:00,
2013-03-19 10:36:00,33.2,31.7,29.91,ENE,59,0.0,0.0,94,0.00,,,0.00,WeatherCatV1.11B39,2013-03-19 14:36:00,
2013-03-19 10:41:00,33.2,31.7,29.91,ENE,59,2.0,7.0,94,0.00,,,0.00,WeatherCatV1.11B39,2013-03-19 14:41:00,
2013-03-19 10:46:00,33.4,31.9,29.91,NNE,33,0.0,4.0,94,0.00,,,0.00,WeatherCatV1.11B39,2013-03-19 14:46:00,
2013-03-19 10:51:00,33.4,31.9,29.90,NE,54,0.0,6.0,94,0.00,,,0.00,WeatherCatV1.11B39,2013-03-19 14:51:00,
2013-03-19 10:56:00,33.4,31.9,29.89,ENE,60,10.0,11.0,94,0.00,,,0.00,WeatherCatV1.11B39,2013-03-19 14:56:00,
2013-03-19 11:01:00,33.5,32.0,29.89,NE,49,1.0,7.0,94,0.00,,,0.00,WeatherCatV1.11B39,2013-03-19 15:01:00,
2013-03-19 11:06:00,33.5,32.0,29.89,ENE,63,0.0,0.0,94,0.00,,,0.00,WeatherCatV1.11B39,2013-03-19 15:06:00,
2013-03-19 11:11:00,33.5,31.7,29.89,ENE,61,0.0,9.0,93,0.00,,,0.00,WeatherCatV1.11B39,2013-03-19 15:11:00,
2013-03-19 11:16:00,33.7,32.2,29.89,ENE,65,6.0,10.0,94,0.00,,,0.00,WeatherCatV1.11B39,2013-03-19 15:16:00,
2013-03-19 11:21:00,33.5,32.0,29.89,NE,54,0.0,0.0,94,0.00,,,0.00,WeatherCatV1.11B39,2013-03-19 15:21:00,
2013-03-19 11:26:00,33.7,32.2,29.88,NE,56,3.0,9.0,94,0.00,,,0.00,WeatherCatV1.11B39,2013-03-19 15:26:00,
2013-03-19 11:31:00,33.7,32.2,29.87,ENE,61,2.0,8.0,94,0.00,,,0.00,WeatherCatV1.11B39,2013-03-19 15:31:00,
2013-03-19 11:36:00,33.6,32.1,29.88,NE,56,3.0,7.0,94,0.00,,,0.00,WeatherCatV1.11B39,2013-03-19 15:36:00,
2013-03-19 11:41:00,33.7,32.2,29.87,ENE,64,0.0,0.0,94,0.00,,,0.00,WeatherCatV1.11B39,2013-03-19 15:41:00,
2013-03-19 11:46:00,33.7,32.2,29.86,ENE,59,6.0,10.0,94,0.00,,,0.00,WeatherCatV1.11B39,2013-03-19 15:46:00,
2013-03-19 11:51:00,33.7,32.2,29.84,ENE,60,11.0,12.0,94,0.00,,,0.00,WeatherCatV1.11B39,2013-03-19 15:51:00,
2013-03-19 11:56:00,33.8,32.3,29.83,ENE,61,4.0,9.0,94,0.00,,,0.00,WeatherCatV1.11B39,2013-03-19 15:56:00,
2013-03-19 12:01:00,34.0,32.5,29.84,ENE,65,5.0,10.0,94,0.00,,,0.00,WeatherCatV1.11B39,2013-03-19 16:01:00,
2013-03-19 12:06:00,33.9,32.4,29.84,ENE,60,11.0,11.0,94,0.00,,,0.00,WeatherCatV1.11B39,2013-03-19 16:06:00,
2013-03-19 12:11:00,34.0,32.5,29.84,NNE,21,0.0,8.0,94,0.00,,,0.00,WeatherCatV1.11B39,2013-03-19 16:11:00,
2013-03-19 12:16:00,33.9,32.4,29.84,NE,41,0.0,6.0,94,0.00,,,0.00,WeatherCatV1.11B39,2013-03-19 16:16:00,
2013-03-19 12:21:00,33.9,32.4,29.84,ENE,59,3.0,7.0,94,0.00,,,0.00,WeatherCatV1.11B39,2013-03-19 16:21:00,
2013-03-19 12:26:00,33.9,32.4,29.84,ENE,61,6.0,7.0,94,0.00,,,0.00,WeatherCatV1.11B39,2013-03-19 16:26:00,
2013-03-19 12:31:00,33.9,32.4,29.83,NNE,31,5.0,9.0,94,0.00,,,0.00,WeatherCatV1.11B39,2013-03-19 16:31:00,
2013-03-19 12:36:00,33.9,32.4,29.82,ENE,64,10.0,12.0,94,0.00,,,0.00,WeatherCatV1.11B39,2013-03-19 16:36:00,
2013-03-19 12:41:00,33.9,32.4,29.82,ENE,64,7.0,8.0,94,0.00,,,0.00,WeatherCatV1.11B39,2013-03-19 16:41:00,
2013-03-19 12:46:00,34.0,32.5,29.82,ENE,64,10.0,10.0,94,0.00,,,0.00,WeatherCatV1.11B39,2013-03-19 16:46:00,
2013-03-19 12:51:00,34.0,32.5,29.81,ENE,63,5.0,8.0,94,0.00,,,0.01,WeatherCatV1.11B39,2013-03-19 16:51:00,
2013-03-19 12:56:00,34.0,32.5,29.81,ENE,57,0.0,11.0,94,0.00,,,0.01,WeatherCatV1.11B39,2013-03-19 16:56:00,
2013-03-19 13:01:00,33.9,32.4,29.82,ENE,61,6.0,6.0,94,0.00,,,0.01,WeatherCatV1.11B39,2013-03-19 17:01:00,
2013-03-19 13:06:00,33.9,32.4,29.81,NE,53,6.0,11.0,94,0.00,,,0.01,WeatherCatV1.11B39,2013-03-19 17:06:00,
2013-03-19 13:11:00,34.0,32.5,29.80,NE,52,0.0,4.0,94,0.00,,,0.01,WeatherCatV1.11B39,2013-03-19 17:11:00,
2013-03-19 13:16:00,34.1,32.8,29.78,ENE,57,0.0,0.0,95,0.00,,,0.01,WeatherCatV1.11B39,2013-03-19 17:16:00,
2013-03-19 13:21:00,34.1,32.6,29.78,ENE,60,5.0,9.0,94,0.00,,,0.01,WeatherCatV1.11B39,2013-03-19 17:21:00,
2013-03-19 13:26:00,34.0,32.5,29.78,ENE,57,0.0,0.0,94,0.00,,,0.02,WeatherCatV1.11B39,2013-03-19 17:26:00,
2013-03-19 13:31:00,34.1,32.6,29.78,ENE,63,0.0,8.0,94,0.00,,,0.02,WeatherCatV1.11B39,2013-03-19 17:31:00,
2013-03-19 13:36:00,34.1,32.6,29.77,ENE,59,2.0,13.0,94,0.00,,,0.02,WeatherCatV1.11B39,2013-03-19 17:36:00,
2013-03-19 13:41:00,34.1,32.8,29.78,ENE,59,1.0,8.0,95,0.00,,,0.02,WeatherCatV1.11B39,2013-03-19 17:41:00,
2013-03-19 13:46:00,33.9,32.4,29.77,NE,51,0.0,11.0,94,0.00,,,0.02,WeatherCatV1.11B39,2013-03-19 17:46:00,
2013-03-19 13:51:00,34.0,32.7,29.77,ENE,58,0.0,0.0,95,0.00,,,0.02,WeatherCatV1.11B39,2013-03-19 17:51:00,
2013-03-19 13:56:00,34.0,32.5,29.79,NE,50,0.0,0.0,94,0.00,,,0.02,WeatherCatV1.11B39,2013-03-19 17:56:00,
2013-03-19 14:02:00,34.1,32.8,29.79,NE,51,0.0,0.0,95,0.00,,,0.03,WeatherCatV1.11B39,2013-03-19 18:02:00,
2013-03-19 14:07:00,34.1,32.8,29.80,NE,51,0.0,0.0,95,0.00,,,0.03,WeatherCatV1.11B39,2013-03-19 18:07:00,
2013-03-19 14:12:00,34.3,33.0,29.83,NNW,340,0.0,0.0,95,0.00,,,0.03,WeatherCatV1.11B39,2013-03-19 18:12:00,
2013-03-19 14:17:00,34.3,33.0,29.81,NNW,343,0.0,0.0,95,0.00,,,0.03,WeatherCatV1.11B39,2013-03-19 18:17:00,
2013-03-19 14:22:00,34.3,32.8,29.83,NNW,348,0.0,0.0,94,0.00,,,0.03,WeatherCatV1.11B39,2013-03-19 18:22:00,
2013-03-19 14:27:00,34.3,32.8,29.82,NNW,348,0.0,0.0,94,0.00,,,0.03,WeatherCatV1.11B39,2013-03-19 18:27:00,
2013-03-19 14:32:00,34.1,32.8,29.80,NE,54,0.0,0.0,95,0.00,,,0.03,WeatherCatV1.11B39,2013-03-19 18:32:00,
2013-03-19 14:37:00,33.9,32.6,29.79,ENE,69,0.0,0.0,95,0.00,,,0.03,WeatherCatV1.11B39,2013-03-19 18:37:00,
2013-03-19 14:42:00,33.9,32.4,29.79,NE,51,0.0,0.0,94,0.00,,,0.03,WeatherCatV1.11B39,2013-03-19 18:42:00,
2013-03-19 14:47:00,33.9,32.4,29.79,ENE,59,0.0,0.0,94,0.00,,,0.03,WeatherCatV1.11B39,2013-03-19 18:47:00,
2013-03-19 14:52:00,33.9,32.6,29.78,NE,50,0.0,7.0,95,0.00,,,0.03,WeatherCatV1.11B39,2013-03-19 18:52:00,
2013-03-19 14:57:00,34.0,32.7,29.78,NE,51,0.0,0.0,95,0.00,,,0.03,WeatherCatV1.11B39,2013-03-19 18:57:00,
2013-03-19 15:02:00,34.0,32.5,29.78,NE,55,0.0,0.0,94,0.00,,,0.03,WeatherCatV1.11B39,2013-03-19 19:02:00,
2013-03-19 15:07:00,33.9,32.4,29.78,ENE,75,0.0,0.0,94,0.00,,,0.03,WeatherCatV1.11B39,2013-03-19 19:07:00,
2013-03-19 15:12:00,33.9,32.6,29.78,ENE,75,0.0,0.0,95,0.00,,,0.03,WeatherCatV1.11B39,2013-03-19 19:12:00,
2013-03-19 15:17:00,34.0,32.7,29.78,East,81,0.0,0.0,95,0.00,,,0.03,WeatherCatV1.11B39,2013-03-19 19:17:00,
2013-03-19 15:22:00,34.0,32.5,29.77,East,83,0.0,0.0,94,0.00,,,0.03,WeatherCatV1.11B39,2013-03-19 19:22:00,
2013-03-19 15:27:00,33.9,32.6,29.76,ENE,60,2.0,4.0,95,0.00,,,0.03,WeatherCatV1.11B39,2013-03-19 19:27:00,
2013-03-19 15:32:00,33.8,32.5,29.75,ENE,60,7.0,8.0,95,0.00,,,0.03,WeatherCatV1.11B39,2013-03-19 19:32:00,
2013-03-19 15:37:00,33.8,32.5,29.73,NE,55,5.0,11.0,95,0.00,,,0.04,WeatherCatV1.11B39,2013-03-19 19:37:00,
2013-03-19 15:42:00,33.8,32.5,29.71,NE,56,7.0,9.0,95,0.00,,,0.04,WeatherCatV1.11B39,2013-03-19 19:42:00,
2013-03-19 15:47:00,33.8,32.3,29.70,ENE,60,1.0,12.0,94,0.00,,,0.04,WeatherCatV1.11B39,2013-03-19 19:47:00,
2013-03-19 15:52:00,33.7,32.4,29.70,ENE,61,9.0,10.0,95,0.00,,,0.04,WeatherCatV1.11B39,2013-03-19 19:52:00,
2013-03-19 15:57:00,33.7,32.4,29.70,ENE,63,4.0,6.0,95,0.00,,,0.04,WeatherCatV1.11B39,2013-03-19 19:57:00,
2013-03-19 16:02:00,33.8,32.5,29.70,ENE,63,0.0,6.0,95,0.00,,,0.04,WeatherCatV1.11B39,2013-03-19 20:02:00,
2013-03-19 16:07:00,33.8,32.5,29.69,NE,50,4.0,8.0,95,0.00,,,0.04,WeatherCatV1.11B39,2013-03-19 20:07:00,
2013-03-19 16:12:00,34.0,32.7,29.70,ENE,61,0.0,2.0,95,0.00,,,0.04,WeatherCatV1.11B39,2013-03-19 20:12:00,
2013-03-19 16:17:00,33.9,32.6,29.69,NE,50,3.0,9.0,95,0.00,,,0.04,WeatherCatV1.11B39,2013-03-19 20:17:00,
2013-03-19 16:22:00,34.0,32.7,29.69,NE,56,5.0,10.0,95,0.00,,,0.04,WeatherCatV1.11B39,2013-03-19 20:22:00,
2013-03-19 16:27:00,33.9,32.6,29.69,NE,48,4.0,8.0,95,0.00,,,0.04,WeatherCatV1.11B39,2013-03-19 20:27:00,
2013-03-19 16:32:00,34.0,32.7,29.70,ENE,66,7.0,8.0,95,0.00,,,0.04,WeatherCatV1.11B39,2013-03-19 20:32:00,
2013-03-19 16:37:00,33.9,32.6,29.69,NE,44,3.0,6.0,95,0.00,,,0.04,WeatherCatV1.11B39,2013-03-19 20:37:00,
2013-03-19 16:42:00,34.0,32.7,29.69,NE,56,4.0,5.0,95,0.00,,,0.04,WeatherCatV1.11B39,2013-03-19 20:42:00,
2013-03-19 16:47:00,33.9,32.4,29.69,NE,56,0.0,6.0,94,0.00,,,0.05,WeatherCatV1.11B39,2013-03-19 20:47:00,
2013-03-19 16:52:00,33.9,32.6,29.69,NE,49,0.0,0.0,95,0.00,,,0.05,WeatherCatV1.11B39,2013-03-19 20:52:00,
2013-03-19 16:57:00,33.9,32.6,29.68,NE,55,1.0,6.0,95,0.00,,,0.05,WeatherCatV1.11B39,2013-03-19 20:57:00,
2013-03-19 17:02:00,34.0,32.7,29.68,NE,51,0.0,0.0,95,0.00,,,0.05,WeatherCatV1.11B39,2013-03-19 21:02:00,
2013-03-19 17:07:00,34.0,32.7,29.69,NE,53,0.0,0.0,95,0.00,,,0.05,WeatherCatV1.11B39,2013-03-19 21:07:00,
2013-03-19 17:12:00,34.0,32.7,29.69,NE,45,0.0,2.0,95,0.00,,,0.05,WeatherCatV1.11B39,2013-03-19 21:12:00,
2013-03-19 17:17:00,34.0,32.7,29.69,NE,48,0.0,0.0,95,0.00,,,0.05,WeatherCatV1.11B39,2013-03-19 21:17:00,
2013-03-19 17:22:00,33.9,32.6,29.69,ENE,65,0.0,0.0,95,0.00,,,0.05,WeatherCatV1.11B39,2013-03-19 21:22:00,
2013-03-19 17:27:00,33.9,32.6,29.69,ENE,57,0.0,6.0,95,0.00,,,0.05,WeatherCatV1.11B39,2013-03-19 21:27:00,
2013-03-19 17:32:00,33.8,32.5,29.69,NE,54,0.0,0.0,95,0.00,,,0.05,WeatherCatV1.11B39,2013-03-19 21:32:00,
2013-03-19 17:37:00,33.8,32.5,29.69,NE,52,0.0,0.0,95,0.00,,,0.05,WeatherCatV1.11B39,2013-03-19 21:37:00,
2013-03-19 17:42:00,33.8,32.5,29.69,NE,45,0.0,0.0,95,0.00,,,0.05,WeatherCatV1.11B39,2013-03-19 21:42:00,
2013-03-19 17:47:00,33.8,32.5,29.69,ENE,60,0.0,0.0,95,0.00,,,0.05,WeatherCatV1.11B39,2013-03-19 21:47:00,
2013-03-19 17:52:00,33.8,32.5,29.69,NE,49,0.0,0.0,95,0.00,,,0.05,WeatherCatV1.11B39,2013-03-19 21:52:00,
2013-03-19 17:57:00,33.7,32.4,29.68,East,79,0.0,6.0,95,0.00,,,0.05,WeatherCatV1.11B39,2013-03-19 21:57:00,
2013-03-19 18:02:00,33.6,32.3,29.68,ENE,73,0.0,0.0,95,0.00,,,0.05,WeatherCatV1.11B39,2013-03-19 22:02:00,
2013-03-19 18:07:00,33.7,32.4,29.67,NE,46,0.0,4.0,95,0.00,,,0.05,WeatherCatV1.11B39,2013-03-19 22:07:00,
2013-03-19 18:12:00,33.7,32.4,29.67,NE,50,0.0,0.0,95,0.00,,,0.05,WeatherCatV1.11B39,2013-03-19 22:12:00,
2013-03-19 18:17:00,33.7,32.4,29.68,NE,56,0.0,0.0,95,0.00,,,0.06,WeatherCatV1.11B39,2013-03-19 22:17:00,
2013-03-19 18:22:00,33.7,32.4,29.68,ENE,72,0.0,0.0,95,0.00,,,0.06,WeatherCatV1.11B39,2013-03-19 22:22:00,
2013-03-19 18:27:00,33.7,32.4,29.68,NE,49,0.0,0.0,95,0.00,,,0.06,WeatherCatV1.11B39,2013-03-19 22:27:00,
2013-03-19 18:32:00,33.7,32.2,29.68,NE,46,2.0,6.0,94,0.00,,,0.06,WeatherCatV1.11B39,2013-03-19 22:32:00,
2013-03-19 18:37:00,33.5,32.2,29.68,ENE,59,0.0,0.0,95,0.00,,,0.06,WeatherCatV1.11B39,2013-03-19 22:37:00,
2013-03-19 18:42:00,33.5,32.2,29.68,NE,51,0.0,0.0,95,0.00,,,0.06,WeatherCatV1.11B39,2013-03-19 22:42:00,
2013-03-19 18:47:00,33.5,32.2,29.68,North,351,0.0,0.0,95,0.00,,,0.06,WeatherCatV1.11B39,2013-03-19 22:47:00,
2013-03-19 18:52:00,33.4,32.1,29.69,NE,42,0.0,0.0,95,0.00,,,0.06,WeatherCatV1.11B39,2013-03-19 22:52:00,
2013-03-19 18:57:00,33.3,32.0,29.69,NE,46,0.0,0.0,95,0.00,,,0.06,WeatherCatV1.11B39,2013-03-19 22:57:00,
2013-03-19 19:02:00,33.4,32.1,29.69,NE,49,0.0,0.0,95,0.00,,,0.06,WeatherCatV1.11B39,2013-03-19 23:02:00,
2013-03-19 19:07:00,33.4,32.1,29.69,NE,56,0.0,0.0,95,0.00,,,0.06,WeatherCatV1.11B39,2013-03-19 23:07:00,
2013-03-19 19:12:00,33.4,32.1,29.70,NE,55,0.0,0.0,95,0.00,,,0.06,WeatherCatV1.11B39,2013-03-19 23:12:00,
2013-03-19 19:17:00,33.4,32.1,29.70,ENE,64,0.0,0.0,95,0.00,,,0.06,WeatherCatV1.11B39,2013-03-19 23:17:00,
2013-03-19 19:22:00,33.4,32.1,29.70,North,9,0.0,0.0,95,0.00,,,0.06,WeatherCatV1.11B39,2013-03-19 23:22:00,
2013-03-19 19:27:00,33.2,31.9,29.70,North,8,0.0,0.0,95,0.00,,,0.06,WeatherCatV1.11B39,2013-03-19 23:27:00,
2013-03-19 19:32:00,33.2,31.9,29.69,North,8,0.0,0.0,95,0.00,,,0.06,WeatherCatV1.11B39,2013-03-19 23:32:00,
2013-03-19 19:37:00,33.2,31.9,29.69,North,8,0.0,0.0,95,0.00,,,0.06,WeatherCatV1.11B39,2013-03-19 23:37:00,
2013-03-19 19:42:00,33.2,31.9,29.69,North,8,0.0,0.0,95,0.00,,,0.06,WeatherCatV1.11B39,2013-03-19 23:42:00,
2013-03-19 19:47:00,33.1,31.8,29.70,North,8,0.0,0.0,95,0.00,,,0.06,WeatherCatV1.11B39,2013-03-19 23:47:00,
2013-03-19 19:52:00,33.1,31.8,29.69,North,11,0.0,0.0,95,0.00,,,0.06,WeatherCatV1.11B39,2013-03-19 23:52:00,
2013-03-19 19:57:00,33.1,31.8,29.69,NNE,13,0.0,0.0,95,0.00,,,0.06,WeatherCatV1.11B39,2013-03-19 23:57:00,
2013-03-19 20:02:00,32.9,31.6,29.70,NNE,24,0.0,0.0,95,0.00,,,0.06,WeatherCatV1.11B39,2013-03-20 00:02:00,
2013-03-19 20:07:00,32.9,31.6,29.70,WSW,256,0.0,0.0,95,0.00,,,0.06,WeatherCatV1.11B39,2013-03-20 00:07:00,
2013-03-19 20:12:00,32.7,31.4,29.70,NNE,12,0.0,0.0,95,0.00,,,0.06,WeatherCatV1.11B39,2013-03-20 00:12:00,
2013-03-19 20:17:00,32.7,31.4,29.69,NNE,13,0.0,0.0,95,0.00,,,0.06,WeatherCatV1.11B39,2013-03-20 00:17:00,
2013-03-19 20:22:00,32.5,31.2,29.69,NNE,19,0.0,0.0,95,0.00,,,0.06,WeatherCatV1.11B39,2013-03-20 00:22:00,
2013-03-19 20:27:00,32.5,31.2,29.70,NNE,19,0.0,0.0,95,0.00,,,0.06,WeatherCatV1.11B39,2013-03-20 00:27:00,
2013-03-19 20:32:00,32.5,31.2,29.70,NNE,21,0.0,0.0,95,0.00,,,0.06,WeatherCatV1.11B39,2013-03-20 00:32:00,
2013-03-19 20:37:00,32.4,31.1,29.71,NNE,29,0.0,0.0,95,0.00,,,0.06,WeatherCatV1.11B39,2013-03-20 00:37:00,
2013-03-19 20:42:00,32.4,31.1,29.71,NNE,28,0.0,0.0,95,0.00,,,0.06,WeatherCatV1.11B39,2013-03-20 00:42:00,
2013-03-19 20:47:00,32.3,31.0,29.71,NNE,28,0.0,0.0,95,0.00,,,0.06,WeatherCatV1.11B39,2013-03-20 00:47:00,
2013-03-19 20:52:00,32.3,31.0,29.72,NNE,28,0.0,0.0,95,0.00,,,0.06,WeatherCatV1.11B39,2013-03-20 00:52:00,
2013-03-19 20:57:00,32.1,30.8,29.72,NNE,28,0.0,0.0,95,0.00,,,0.06,WeatherCatV1.11B39,2013-03-20 00:57:00,
2013-03-19 21:02:00,32.1,30.8,29.72,NNE,29,0.0,0.0,95,0.00,,,0.06,WeatherCatV1.11B39,2013-03-20 01:02:00,
2013-03-19 21:07:00,32.0,30.7,29.73,NNE,28,0.0,0.0,95,0.00,,,0.06,WeatherCatV1.11B39,2013-03-20 01:07:00,
2013-03-19 21:12:00,31.8,30.5,29.73,NNE,31,0.0,0.0,95,0.00,,,0.07,WeatherCatV1.11B39,2013-03-20 01:12:00,
2013-03-19 21:17:00,31.8,30.5,29.73,NNE,31,0.0,0.0,95,0.00,,,0.07,WeatherCatV1.11B39,2013-03-20 01:17:00,
2013-03-19 21:22:00,31.7,30.4,29.73,NNE,26,0.0,0.0,95,0.00,,,0.07,WeatherCatV1.11B39,2013-03-20 01:22:00,
2013-03-19 21:27:00,31.5,30.2,29.73,NNE,25,0.0,0.0,95,0.00,,,0.07,WeatherCatV1.11B39,2013-03-20 01:27:00,
2013-03-19 21:32:00,31.4,30.1,29.73,East,79,0.0,0.0,95,0.00,,,0.07,WeatherCatV1.11B39,2013-03-20 01:32:00,
2013-03-19 21:37:00,31.4,30.1,29.74,ENE,74,0.0,0.0,95,0.00,,,0.07,WeatherCatV1.11B39,2013-03-20 01:37:00,
2013-03-19 21:42:00,31.2,29.9,29.74,ENE,64,0.0,0.0,95,0.00,,,0.07,WeatherCatV1.11B39,2013-03-20 01:42:00,
2013-03-19 21:47:00,31.1,29.8,29.74,ENE,64,0.0,0.0,95,0.00,,,0.07,WeatherCatV1.11B39,2013-03-20 01:47:00,
2013-03-19 21:52:00,31.1,29.8,29.74,ENE,64,0.0,0.0,95,0.00,,,0.07,WeatherCatV1.11B39,2013-03-20 01:52:00,
2013-03-19 21:57:00,31.1,29.8,29.74,ENE,62,0.0,0.0,95,0.00,,,0.07,WeatherCatV1.11B39,2013-03-20 01:57:00,
2013-03-19 22:02:00,30.9,29.6,29.73,ENE,62,0.0,0.0,95,0.00,,,0.07,WeatherCatV1.11B39,2013-03-20 02:02:00,
2013-03-19 22:07:00,30.8,29.5,29.74,ENE,66,0.0,0.0,95,0.00,,,0.07,WeatherCatV1.11B39,2013-03-20 02:07:00,
2013-03-19 22:12:00,30.8,29.5,29.74,ENE,63,0.0,0.0,95,0.00,,,0.07,WeatherCatV1.11B39,2013-03-20 02:12:00,
2013-03-19 22:17:00,30.6,29.3,29.74,ENE,63,0.0,0.0,95,0.00,,,0.07,WeatherCatV1.11B39,2013-03-20 02:17:00,
2013-03-19 22:22:00,30.5,29.2,29.73,NE,50,0.0,0.0,95,0.00,,,0.07,WeatherCatV1.11B39,2013-03-20 02:22:00,
2013-03-19 22:27:00,30.4,29.1,29.73,NE,50,0.0,0.0,95,0.00,,,0.07,WeatherCatV1.11B39,2013-03-20 02:27:00,
2013-03-19 22:32:00,30.4,29.1,29.73,NE,50,0.0,0.0,95,0.00,,,0.07,WeatherCatV1.11B39,2013-03-20 02:32:00,
2013-03-19 22:37:00,30.4,29.1,29.73,NE,50,0.0,0.0,95,0.00,,,0.07,WeatherCatV1.11B39,2013-03-20 02:37:00,
2013-03-19 22:42:00,30.2,28.9,29.74,NE,50,0.0,0.0,95,0.00,,,0.07,WeatherCatV1.11B39,2013-03-20 02:42:00,
2013-03-19 22:47:00,30.2,28.9,29.74,NE,52,0.0,0.0,95,0.00,,,0.07,WeatherCatV1.11B39,2013-03-20 02:47:00,
2013-03-19 22:52:00,30.2,28.9,29.73,NE,52,0.0,0.0,95,0.00,,,0.07,WeatherCatV1.11B39,2013-03-20 02:52:00,
2013-03-19 22:57:00,30.1,28.8,29.73,NE,53,0.0,0.0,95,0.00,,,0.07,WeatherCatV1.11B39,2013-03-20 02:57:00,
2013-03-19 23:02:00,29.9,28.6,29.73,NE,53,0.0,0.0,95,0.00,,,0.07,WeatherCatV1.11B39,2013-03-20 03:02:00,
2013-03-19 23:07:00,29.8,28.3,29.73,NE,49,0.0,0.0,94,0.00,,,0.07,WeatherCatV1.11B39,2013-03-20 03:07:00,
2013-03-19 23:12:00,29.4,27.9,29.74,NE,49,0.0,0.0,94,0.00,,,0.07,WeatherCatV1.11B39,2013-03-20 03:12:00,
2013-03-19 23:17:00,29.3,27.8,29.73,NE,49,0.0,0.0,94,0.00,,,0.07,WeatherCatV1.11B39,2013-03-20 03:17:00,
2013-03-19 23:22:00,29.0,27.5,29.73,NE,43,0.0,0.0,94,0.00,,,0.07,WeatherCatV1.11B39,2013-03-20 03:22:00,
2013-03-19 23:27:00,28.7,27.2,29.73,NE,43,0.0,0.0,94,0.00,,,0.07,WeatherCatV1.11B39,2013-03-20 03:27:00,
2013-03-19 23:32:00,28.5,27.0,29.73,NE,43,0.0,0.0,94,0.00,,,0.07,WeatherCatV1.11B39,2013-03-20 03:32:00,
2013-03-19 23:37:00,28.3,26.8,29.73,NE,43,0.0,0.0,94,0.00,,,0.07,WeatherCatV1.11B39,2013-03-20 03:37:00,
2013-03-19 23:42:00,28.0,26.5,29.73,NE,43,0.0,0.0,94,0.00,,,0.07,WeatherCatV1.11B39,2013-03-20 03:42:00,
2013-03-19 23:47:00,28.0,26.5,29.73,NE,43,0.0,0.0,94,0.00,,,0.07,WeatherCatV1.11B39,2013-03-20 03:47:00,
2013-03-19 23:52:00,27.8,26.3,29.73,NE,43,0.0,0.0,94,0.00,,,0.07,WeatherCatV1.11B39,2013-03-20 03:52:00,
2013-03-19 23:57:00,27.7,26.2,29.73,NE,43,0.0,0.0,94,0.00,,,0.07,WeatherCatV1.11B39,2013-03-20 03:57:00,